Theta_e
319 320 318 317 318 317 317 317 318 317 316 315 314 313 311 312 311 311 313 313 313 312 311 312 313 312 311 311 310 310 310 309
316 316 316 315 316 315 314 314 314 315 314 313 313 307 308 309 310 312 312 312 313 312 311 310 310 309 309 310 309 309 309 309
313 314 314 315 314 313 313 313 313 311 310 310 309 308 309 309 311 312 312 311 311 310 311 310 310 309 309 308 308 306 306 308
313 314 314 315 313 313 312 312 311 312 312 311 310 311 311 308 308 308 308 310 310 310 310 309 310 310 308 308 307 306 304 307
315 314 314 314 315 315 313 311 310 310 311 311 308 306 304 306 305 304 305 307 308 309 310 309 309 309 309 307 308 307 306 303
313 315 316 316 316 314 314 312 310 309 312 312 307 306 305 304 304 304 306 306 307 307 308 308 308 308 307 307 307 306 307 305
314 315 317 317 317 314 314 311 309 310 311 308 307 305 304 304 304 304 305 306 306 307 307 307 307 307 307 306 306 305 304 305
314 313 313 316 317 315 313 311 309 312 309 307 307 308 307 306 304 305 305 303 303 304 306 306 306 307 306 306 305 304 304 303
313 313 314 314 317 316 313 311 310 311 309 307 311 311 308 307 306 306 305 304 303 304 305 305 306 306 306 306 305 304 303 303
311 311 312 313 314 315 316 312 311 310 307 309 310 311 309 308 309 309 306 305 304 304 304 304 305 305 305 304 302 301 302 301
309 308 309 311 312 314 317 313 312 311 308 309 310 310 309 310 309 308 306 305 305 304 304 304 303 303 303 304 302 302 301 301
306 306 307 308 309 310 310 311 311 309 309 309 309 309 309 309 308 308 307 306 305 305 304 304 303 302 302 301 302 302 300 300
307 306 306 305 305 306 305 305 305 304 303 305 306 307 306 305 305 304 304 302 303 303 303 303 303 302 302 301 300 300 299 298
303 302 302 302 302 302 302 302 302 302 302 302 302 301 300 299 300 300 300 299 299 299 299 299 299 300 300 300 300 300 299 299
299 299 299 299 300 300 300 300 300 299 299 298 297 297 296 295 295 294 294 295 294 295 296 296 297 297 297 298 298 298 296 296
297 297 296 297 297 298 298 298 297 296 294 293 291 292 292 291 291 291 292 292 292 292 292 292 292 292 293 293 292 292 292 292
297 296 296 295 295 294 294 293 293 293 290 290 290 290 290 290 290 290 289 289 290 290 289 290 289 290 290 290 290 289 290 290
295 295 295 295 293 291 290 291 292 290 290 289 289 289 288 288 289 288 288 288 288 288 288 288 287 288 290 290 289 288 288 288
295 295 295 294 291 290 291 291 290 290 289 288 288 287 287 287 287 286 286 286 286 286 286 286 286 287 288 288 288 287 287 288
Wind_Speed
7 7 9 9 8 7 6 5 4 7 4 5 3 5 5 5 4 5 5 4 7 4 5 7 7 7 6 6 6 5 5 6
7 7 6 8 7 7 7 5 3 4 1 3 3 4 4 3 3 5 3 4 3 2 3 3 3 4 5 7 6 9 7 7
9 7 6 5 6 7 6 5 4 4 4 3 3 3 2 2 3 3 1 4 5 4 5 4 5 4 4 5 6 4 3 6
8 8 7 6 6 6 6 6 5 6 5 4 3 2 2 3 3 2 4 2 4 4 4 3 6 5 4 0 3 5 4 4
9 9 8 8 7 7 5 7 6 4 6 5 7 4 3 3 4 4 5 5 4 2 3 3 4 4 5 3 4 2 4 5
5 3 5 9 8 7 5 7 6 6 4 4 4 4 2 2 2 6 3 1 0 2 4 2 4 4 4 6 6 6 4 5
8 6 4 2 7 9 7 7 7 6 4 2 4 3 3 3 2 3 3 1 1 3 4 3 3 4 4 3 4 5 6 7
1 5 5 2 4 10 9 8 6 8 5 4 3 2 1 4 3 4 3 2 2 3 4 4 4 5 5 4 5 5 6 6
10 9 8 7 3 4 10 8 5 9 8 6 3 1 3 3 5 5 3 2 3 4 4 5 6 7 6 5 4 4 5 5
13 14 13 10 10 9 8 8 4 8 8 5 3 2 4 5 7 5 3 2 4 4 5 6 7 7 7 6 6 8 7 7
12 11 12 12 10 8 8 7 2 4 6 5 2 5 7 7 10 10 5 4 5 6 6 7 7 7 8 8 8 8 9 8
10 11 12 13 12 14 14 11 9 7 5 4 7 7 8 9 8 7 5 6 6 7 8 8 8 9 8 8 8 10 11 11
9 10 11 12 13 14 16 15 14 11 9 8 7 7 9 10 12 14 13 13 12 13 12 13 13 13 12 11 11 12 12 13
9 11 11 11 11 11 11 12 11 10 10 10 9 11 11 12 12 12 11 11 12 11 11 11 12 13 14 14 15 16 15 15
9 9 9 9 9 9 9 9 9 9 9 9 9 9 11 11 12 12 12 12 13 13 12 12 11 13 14 14 14 13 15 16
8 8 8 8 8 8 8 8 8 9 10 10 10 10 10 10 11 12 12 12 12 13 14 14 14 13 10 12 13 14 14 15
6 6 7 8 9 9 9 9 8 9 9 9 10 11 12 11 11 12 12 13 12 13 14 15 14 11 16 21 15 12 15 15
4 5 6 6 7 8 8 7 7 7 8 9 10 11 11 11 12 13 13 13 13 13 14 15 17 16 18 16 18 14 15 15
4 4 5 6 7 6 6 6 6 7 8 9 10 12 12 13 13 13 13 13 12 14 14 14 16 14 22 24 25 17 15 16
Wind_Direction
116 116 98 91 88 89 91 86 88 91 95 91 89 90 84 78 76 69 49 48 35 22 19 6 350 351 350 357 323 321 302 293
121 77 105 115 122 122 101 105 108 115 114 110 68 65 71 71 87 94 104 105 80 5 45 15 355 340 332 9 339 346 336 334
147 146 132 138 144 138 134 140 95 85 89 97 105 121 165 174 150 129 47 67 41 13 28 358 343 330 346 14 334 321 318 336
146 156 163 166 158 156 167 143 148 92 102 110 118 125 109 49 20 17 352 28 74 26 349 341 327 322 325 188 292 290 307 322
140 159 164 176 173 155 169 134 108 104 76 73 67 61 56 37 4 354 313 351 2 200 279 326 293 306 308 339 294 301 310 297
53 121 165 171 160 147 176 126 129 100 81 86 81 81 69 17 273 250 269 254 265 5 330 277 293 304 324 316 328 342 304 288
27 42 64 159 151 152 152 146 135 151 112 90 100 135 190 234 314 286 289 298 281 235 219 264 262 276 278 301 307 308 301 305
89 55 19 85 160 151 148 166 174 147 134 175 190 240 243 285 296 266 293 317 321 336 336 305 278 257 258 261 257 262 270 274
44 37 31 21 22 170 160 162 192 155 151 198 183 358 338 310 257 284 291 302 316 339 302 277 275 279 264 261 264 273 283 296
36 33 21 18 12 3 160 157 184 150 158 188 70 311 280 285 292 293 275 310 293 301 307 282 278 275 262 263 264 265 259 265
40 33 30 24 22 8 67 93 80 80 129 87 333 346 293 327 314 294 280 287 276 278 283 276 273 269 270 250 243 249 255 253
49 40 40 37 23 45 32 40 46 68 56 355 350 348 324 308 305 320 304 281 276 273 275 281 283 281 275 271 259 238 246 250
64 56 45 44 38 39 40 33 32 27 23 4 348 345 343 343 2 7 4 3 354 347 338 327 318 311 304 292 281 276 258 252
62 55 50 45 39 34 39 33 24 10 7 6 9 4 359 349 348 349 346 338 335 332 330 325 319 321 318 314 315 310 296 280
58 60 56 48 43 40 34 30 24 7 4 360 3 355 351 350 349 347 341 336 331 328 323 313 309 307 308 305 302 315 315 310
57 54 50 44 37 22 26 21 14 6 3 1 357 358 350 346 346 340 335 333 332 336 328 321 321 317 308 317 316 307 308 308
66 58 47 33 22 15 11 10 9 10 2 358 353 351 346 341 336 331 328 326 327 319 314 311 309 306 303 297 296 315 311 308
69 48 40 36 24 13 1 358 7 5 355 355 345 342 334 331 332 326 328 327 321 321 323 318 312 310 314 334 330 317 307 301
87 43 21 23 38 8 343 358 357 356 354 347 340 337 331 332 329 330 326 320 321 320 311 316 318 319 325 326 317 313 309 306